[Date Prev][Date Next][Thread Prev][Thread Next] - [Date Index][Thread Index][Author Index]

2 Line ISS Keps 10-2



ISS 
1 25544U 98067A   04275.72866289  .00013974  00000-0  12516-3 0  8155
2 25544  51.6355 142.0171 0009732 173.0560 312.7912 15.68599636335055
----
Via the sarex mailing list at AMSAT.ORG courtesy of AMSAT-NA.
To unsubscribe, send "unsubscribe sarex" to Majordomo@amsat.org



AMSAT Top AMSAT Home